Location: Unspecified
(34.4950°S, 58.5160°W)
Time: 14:26:44
(UTC+00:00)

Cosmos 1655 Rocket - Pass Details

Date: 04 July 2022
Orbit: 971 x 1005 km, 83.0° (Epoch: 11 August)

Event Time Altitude Azimuth Distance (km) Brightness Sun altitude
Rises 00:09:53 0° 323° (NW) 3,716 7.5 -39.2°
Reaches altitude 10° 00:12:49 10° 311° (NW) 2,778 6.8 -39.8°
Maximum altitude 00:18:06 27° 255° (WSW) 1,846 5.8 -40.9°
Enters shadow 00:20:08 23° 227° (SW) 2,020 5.9 -41.3°
